When you browse on this site, cookies collect data to enhance your experience and personalize the content and advertising you see.
Visit our Privacy Policy to learn more. By continuing to use the site, you agree to this use of cookies and data.
  • In Schweiz
  • Länderverzeichnis
  • Für 7 Tage
  • Wassertemperatur
  • Satellitenkarten
  • Wetterkarte
  • Widgets
  • user-avatar
    Anmelden

    Stündliche Wetter Sidi Bu-l-Abbas

    Heute, 21 Januar, Montag

    Zeit Temperatur Niederschläge Wind Luftdruck Luftfeuchtigkeit
    00:00 +8°C° 0 mm 6 m/S 719 mmHg 85%
    01:00 +8°C° 0.2 mm 6 m/S 719 mmHg 83%
    02:00 +8°C° 0.2 mm 5 m/S 719 mmHg 81%
    03:00 +8°C° 0.2 mm 5 m/S 719 mmHg 79%
    04:00 +7°C° 0 mm 4 m/S 719 mmHg 79%
    05:00 +7°C° 0 mm 4 m/S 719 mmHg 79%
    06:00 +7°C° 0 mm 4 m/S 720 mmHg 80%
    07:00 +7°C° 0 mm 4 m/S 720 mmHg 77%
    08:00 +7°C° 0 mm 4 m/S 720 mmHg 75%
    09:00 +7°C° 0 mm 4 m/S 720 mmHg 72%
    10:00 +8°C° 0.1 mm 4 m/S 720 mmHg 69%
    11:00 +8°C° 0.1 mm 4 m/S 720 mmHg 66%
    12:00 +9°C° 0.1 mm 5 m/S 721 mmHg 64%
    13:00 +9°C° 0.1 mm 5 m/S 720 mmHg 63%
    14:00 +9°C° 0.1 mm 5 m/S 720 mmHg 62%
    15:00 +10°C° 0.1 mm 4 m/S 720 mmHg 62%
    16:00 +8°C° 0 mm 4 m/S 720 mmHg 65%
    17:00 +8°C° 0 mm 3 m/S 720 mmHg 69%
    18:00 +7°C° 0 mm 2 m/S 720 mmHg 73%
    19:00 +7°C° 0 mm 2 m/S 721 mmHg 74%
    20:00 +7°C° 0 mm 2 m/S 721 mmHg 76%
    21:00 +6°C° 0 mm 2 m/S 721 mmHg 77%
    22:00 +6°C° 0.1 mm 2 m/S 721 mmHg 76%
    23:00 +6°C° 0.1 mm 2 m/S 721 mmHg 74%

    Morgen, 22 Januar, Dienstag

    Zeit Temperatur Niederschläge Wind Luftdruck Luftfeuchtigkeit
    00:00 +6°C° 0.1 mm 2 m/S 721 mmHg 72%
    01:00 +6°C° 0.1 mm 2 m/S 721 mmHg 73%
    02:00 +6°C° 0.1 mm 2 m/S 721 mmHg 73%
    03:00 +5°C° 0.1 mm 3 m/S 721 mmHg 73%
    04:00 +4°C° 0 mm 3 m/S 721 mmHg 75%
    05:00 +4°C° 0 mm 3 m/S 721 mmHg 76%
    06:00 +4°C° 0 mm 3 m/S 721 mmHg 78%
    07:00 +4°C° 0 mm 4 m/S 721 mmHg 76%
    08:00 +5°C° 0 mm 5 m/S 721 mmHg 75%
    09:00 +6°C° 0 mm 5 m/S 722 mmHg 73%
    10:00 +7°C° 0.1 mm 6 m/S 721 mmHg 72%
    11:00 +8°C° 0.1 mm 7 m/S 721 mmHg 70%
    12:00 +7°C° 0.1 mm 9 m/S 721 mmHg 68%
    13:00 +7°C° 0.1 mm 9 m/S 720 mmHg 67%
    14:00 +8°C° 0.1 mm 10 m/S 719 mmHg 65%
    15:00 +8°C° 0.1 mm 11 m/S 719 mmHg 63%
    16:00 +7°C° 0.1 mm 11 m/S 718 mmHg 68%
    17:00 +7°C° 0.1 mm 10 m/S 718 mmHg 72%
    18:00 +6°C° 0.1 mm 10 m/S 718 mmHg 77%
    19:00 +6°C° 0.2 mm 11 m/S 718 mmHg 77%
    20:00 +7°C° 0.2 mm 11 m/S 718 mmHg 78%
    21:00 +7°C° 0.2 mm 12 m/S 718 mmHg 78%
    22:00 +5°C° 1.4 mm 12 m/S 718 mmHg 83%
    23:00 +5°C° 1.4 mm 12 m/S 718 mmHg 88%

    übermorgen, 23 Januar, Mittwoch

    Zeit Temperatur Niederschläge Wind Luftdruck Luftfeuchtigkeit
    00:00 +6°C° 1.4 mm 11 m/S 717 mmHg 92%
    01:00 +6°C° 3.3 mm 11 m/S 717 mmHg 92%
    02:00 +5°C° 3.3 mm 12 m/S 717 mmHg 91%
    03:00 +5°C° 3.3 mm 12 m/S 716 mmHg 90%
    04:00 +6°C° 3 mm 11 m/S 716 mmHg 90%
    05:00 +6°C° 3 mm 10 m/S 716 mmHg 89%
    06:00 +6°C° 3 mm 9 m/S 716 mmHg 88%
    07:00 +7°C° 0.8 mm 9 m/S 717 mmHg 86%
    08:00 +7°C° 0.8 mm 9 m/S 717 mmHg 85%
    09:00 +7°C° 0.8 mm 9 m/S 718 mmHg 83%
    10:00 +7°C° 0.2 mm 10 m/S 717 mmHg 82%
    11:00 +8°C° 0.2 mm 11 m/S 717 mmHg 80%
    12:00 +8°C° 0.2 mm 12 m/S 717 mmHg 79%
    13:00 +8°C° 0 mm 13 m/S 716 mmHg 77%
    14:00 +8°C° 0 mm 13 m/S 716 mmHg 74%
    15:00 +9°C° 0 mm 14 m/S 715 mmHg 71%
    16:00 +8°C° 0 mm 14 m/S 716 mmHg 75%
    17:00 +8°C° 0 mm 13 m/S 716 mmHg 78%
    18:00 +7°C° 0 mm 13 m/S 716 mmHg 82%
    19:00 +8°C° 0.2 mm 13 m/S 716 mmHg 83%
    20:00 +8°C° 0.2 mm 13 m/S 716 mmHg 84%
    21:00 +8°C° 0.2 mm 13 m/S 716 mmHg 86%
    22:00 +8°C° 0.2 mm 13 m/S 716 mmHg 86%
    23:00 +8°C° 0.2 mm 12 m/S 716 mmHg 87%

    24 Januar, Donnerstag

    Zeit Temperatur Niederschläge Wind Luftdruck Luftfeuchtigkeit
    00:00 +8°C° 0.2 mm 12 m/S 716 mmHg 88%
    01:00 +8°C° 0.3 mm 12 m/S 716 mmHg 88%
    02:00 +8°C° 0.3 mm 12 m/S 715 mmHg 88%
    03:00 +8°C° 0.3 mm 11 m/S 715 mmHg 88%
    04:00 +8°C° 0.4 mm 11 m/S 715 mmHg 88%
    05:00 +7°C° 0.4 mm 12 m/S 715 mmHg 89%
    06:00 +7°C° 0.4 mm 12 m/S 715 mmHg 89%
    07:00 +8°C° 0.6 mm 11 m/S 715 mmHg 85%
    08:00 +8°C° 0.6 mm 11 m/S 716 mmHg 81%
    09:00 +8°C° 0.6 mm 11 m/S 716 mmHg 77%
    10:00 +8°C° 0.2 mm 11 m/S 717 mmHg 71%
    11:00 +9°C° 0.2 mm 11 m/S 717 mmHg 65%
    12:00 +9°C° 0.2 mm 12 m/S 718 mmHg 59%
    13:00 +8°C° 0 mm 10 m/S 717 mmHg 58%
    14:00 +8°C° 0 mm 9 m/S 717 mmHg 57%
    15:00 +7°C° 0 mm 8 m/S 717 mmHg 57%
    16:00 +8°C° 0 mm 6 m/S 717 mmHg 57%
    17:00 +7°C° 0 mm 4 m/S 718 mmHg 58%
    18:00 +8°C° 0 mm 2 m/S 718 mmHg 58%
    19:00 +7°C° 0 mm 2 m/S 719 mmHg 60%
    20:00 +7°C° 0 mm 2 m/S 719 mmHg 61%
    21:00 +6°C° 0 mm 2 m/S 720 mmHg 62%
    22:00 +6°C° 0 mm 2 m/S 720 mmHg 63%
    23:00 +6°C° 0 mm 2 m/S 720 mmHg 64%

    25 Januar, Freitag

    Zeit Temperatur Niederschläge Wind Luftdruck Luftfeuchtigkeit
    00:00 +6°C° 0 mm 2 m/S 720 mmHg 65%
    01:00 +6°C° 0 mm 2 m/S 720 mmHg 66%
    02:00 +6°C° 0 mm 2 m/S 720 mmHg 67%
    03:00 +5°C° 0 mm 2 m/S 720 mmHg 68%
    04:00 +6°C° 0 mm 2 m/S 720 mmHg 68%
    05:00 +6°C° 0 mm 2 m/S 720 mmHg 68%
    06:00 +7°C° 0 mm 1 m/S 720 mmHg 69%
    07:00 +8°C° 0 mm 1 m/S 721 mmHg 67%
    08:00 +8°C° 0 mm 2 m/S 721 mmHg 66%
    09:00 +8°C° 0 mm 2 m/S 722 mmHg 64%
    10:00 +10°C° 0 mm 3 m/S 722 mmHg 62%
    11:00 +11°C° 0 mm 4 m/S 722 mmHg 59%
    12:00 +12°C° 0 mm 4 m/S 722 mmHg 57%
    13:00 +12°C° 0 mm 4 m/S 722 mmHg 56%
    14:00 +13°C° 0 mm 4 m/S 722 mmHg 55%
    15:00 +13°C° 0 mm 4 m/S 722 mmHg 54%
    16:00 +12°C° 0 mm 3 m/S 722 mmHg 61%
    17:00 +10°C° 0 mm 2 m/S 722 mmHg 68%
    18:00 +9°C° 0 mm 2 m/S 722 mmHg 74%
    19:00 +10°C° 0 mm 1 m/S 722 mmHg 77%
    20:00 +9°C° 0 mm 1 m/S 722 mmHg 79%
    21:00 +9°C° 0 mm 1 m/S 723 mmHg 81%
    22:00 +8°C° 0 mm 1 m/S 723 mmHg 80%
    23:00 +8°C° 0 mm 1 m/S 723 mmHg 79%

    26 Januar, Samstag

    Zeit Temperatur Niederschläge Wind Luftdruck Luftfeuchtigkeit
    00:00 +8°C° 0 mm 1 m/S 722 mmHg 77%
    01:00 +8°C° 0 mm 1 m/S 722 mmHg 76%
    02:00 +8°C° 0 mm 1 m/S 722 mmHg 74%
    03:00 +7°C° 0 mm 1 m/S 722 mmHg 72%
    04:00 +7°C° 0 mm 1 m/S 722 mmHg 70%
    05:00 +7°C° 0 mm 1 m/S 722 mmHg 68%
    06:00 +7°C° 0 mm 1 m/S 722 mmHg 66%
    07:00 +9°C° 0 mm 1 m/S 722 mmHg 61%
    08:00 +10°C° 0 mm 1 m/S 723 mmHg 56%
    09:00 +12°C° 0 mm 2 m/S 723 mmHg 51%
    10:00 +13°C° 0 mm 1 m/S 723 mmHg 47%
    11:00 +15°C° 0 mm 1 m/S 723 mmHg 44%
    12:00 +16°C° 0 mm 1 m/S 722 mmHg 40%
    13:00 +17°C° 0 mm 2 m/S 722 mmHg 39%
    14:00 +17°C° 0 mm 3 m/S 721 mmHg 37%
    15:00 +18°C° 0 mm 4 m/S 721 mmHg 36%
    16:00 +16°C° 0 mm 3 m/S 720 mmHg 42%
    17:00 +14°C° 0 mm 2 m/S 720 mmHg 47%
    18:00 +12°C° 0 mm 2 m/S 720 mmHg 53%
    19:00 +12°C° 0 mm 2 m/S 720 mmHg 53%
    20:00 +10°C° 0 mm 2 m/S 720 mmHg 53%
    21:00 +10°C° 0 mm 2 m/S 720 mmHg 53%
    22:00 +10°C° 0 mm 2 m/S 720 mmHg 52%
    23:00 +10°C° 0 mm 2 m/S 719 mmHg 51%
    Mehr zeigen